This is the latest recevied weather packets stored in our database for station/object SP5XSL-4. If no packets are shown the sender has not sent any weather packets the latest 1 day(s).
| Time | Temp. | Humidity | Pressure | Rain* | Wind** | Luminosity | Snow |
|---|---|---|---|---|---|---|---|
| 1777992740 | 21.67° C | - | 1013.4 hPa | - | 4.02 m/s, 254° | - | - |
| 1777992232 | 21.67° C | - | 1013.7 hPa | - | 3.13 m/s, 127° | - | - |
| 1777991690 | 21.67° C | - | 1013.5 hPa | - | 4.02 m/s, 17° | - | - |
| 1777991202 | 21.67° C | - | 1013.7 hPa | - | 3.13 m/s, 170° | - | - |
| 1777990615 | 21.67° C | - | 1013.8 hPa | - | 8.05 m/s, 15° | - | - |
| 1777990062 | 21.67° C | - | 1013.7 hPa | - | 4.02 m/s, 119° | - | - |
| 1777989555 | 22.22° C | - | 1014.1 hPa | - | 8.94 m/s, 259° | - | - |
| 1777989054 | 21.67° C | - | 1013.8 hPa | - | 4.92 m/s, 27° | - | - |
| 1777988474 | 22.22° C | - | 1014 hPa | - | 3.13 m/s, 110° | - | - |
| 1777987934 | 21.67° C | - | 1013.8 hPa | - | 4.92 m/s, 294° | - | - |
| 1777987455 | 21.67° C | - | 1014.1 hPa | - | 5.81 m/s, 21° | - | - |
| 1777986942 | 21.67° C | - | 1014 hPa | - | 4.02 m/s, 44° | - | - |
| 1777986455 | 21.67° C | - | 1014.4 hPa | - | 3.13 m/s, 223° | - | - |
| 1777985944 | 22.22° C | - | 1014.4 hPa | - | 4.02 m/s, 97° | - | - |
| 1777985372 | 21.67° C | - | 1014.2 hPa | - | 1.79 m/s, 73° | - | - |
| 1777984862 | 21.67° C | - | 1014.5 hPa | - | 1.79 m/s, 90° | - | - |
| 1777984271 | 21.67° C | - | 1014.6 hPa | - | 1.79 m/s, 28° | - | - |
| 1777983750 | 21.67° C | - | 1015 hPa | - | 3.13 m/s, 107° | - | - |
| 1777983202 | 21.67° C | - | 1014.9 hPa | - | 1.79 m/s, 97° | - | - |
| 1777982702 | 21.67° C | - | 1015 hPa | - | 1.79 m/s, 102° | - | - |
| 1777982170 | 21.11° C | - | 1015 hPa | - | 0 m/s | - | - |
| 1777981650 | 21.11° C | - | 1015.1 hPa | - | 0.89 m/s, 107° | - | - |
| 1777981112 | 21.11° C | - | 1015.1 hPa | - | 4.02 m/s, 82° | - | - |
| 1777980495 | 21.67° C | - | 1015.3 hPa | - | 1.79 m/s, 89° | - | - |
| 1777979981 | 21.11° C | - | 1015.2 hPa | - | 0.89 m/s, 95° | - | - |
* Rain since midnight (hover to see other rain measurements)
** Current wind speed in m/s (hover to see current wind gust speed)